Skip Page Navigation
NASA JPL Caltech
NASA Logo - Jet Propulsion Laboratory + View the NASA Portal
+ Near-Earth Object (NEO) Program
Search JPL
JPL Home Earth Solar System Stars & Galaxies Technology
JPL Solar System Dynamics
BODIES ORBITS EPHEMERIDES TOOLS PHYSICAL DATA DISCOVERY FAQ SITE MAP
JPL Small-Body Database Browser
Search: [ help ]  
152685 (1998 MZ)
Classification: Apollo [NEO, PHA]          SPK-ID: 2152685
Ephemeris | Orbit Diagram | Orbital Elements | Physical Parameters | Discovery Circumstances | Close-Approach Data ]

[ hide orbit diagram ]
Orbit Diagram
Note: Make sure you have Java enabled on your browser to see the applet. This applet is provided as a 3D orbit visualization tool. The applet was implemented using 2-body methods, and hence should not be used for determining accurate long-term trajectories (over several years or decades) or planetary encounter circumstances. For accurate long-term ephemerides, please instead use our Horizons system.
Orbit Viewer

Additional Notes: the orbits shown in the applet are color coded. The planets are white lines, and the asteroid/comet is a blue line. The bright white line indicates the portion of the orbit that is above the ecliptic plane, and the darker portion is below the ecliptic plane. Likewise for the asteroid/comet orbit, the light blue indicates the portion above the ecliptic plane, and the dark blue the portion below the ecliptic plane.

Orbit Viewer applet originally written and kindly provided by Osamu Ajiki (AstroArts), and further modified by Ron Baalke (JPL).


Orbital Elements at Epoch 2456400.5 (2013-Apr-18.0) TDB
Reference: JPL 77 (heliocentric ecliptic J2000)
 Element Value Uncertainty (1-sigma)   Units 
e .5730600287536198 9.2105e-08  
a 1.346977943044133 9.8689e-09 AU
q .5750787242727704 1.275e-07 AU
i .1457289266268961 4.7878e-06 deg
node 120.6075118880657 0.0022666 deg
peri 40.88026526246254 0.0022675 deg
M 220.3211799860524 3.4686e-05 deg
tp 2456622.047681679508
(2013-Nov-25.54768168)
5.6931e-05 JED
period 571.0040033031397
1.56
6.2753e-06
1.718e-08
d
yr
n .6304684344023416 6.9289e-09 deg/d
Q 2.118877161815496 1.5524e-08 AU
  Orbit Determination Parameters
   # obs. used (total)      265  
   data-arc span      4852 days (13.28 yr)  
   first obs. used      1998-06-18  
   last obs. used      2011-09-30  
   planetary ephem.      DE405  
   SB-pert. ephem.      SB405-CPV-2  
   condition code      0  
   fit RMS      .63074  
   data source      ORB  
   producer      Otto Matic  
   solution date      2013-Apr-29 15:39:14  

Additional Information
 Earth MOID = .00155097 AU 
 T_jup = 4.697 
[ show covariance matrix ]

Ephemeris | Orbit Diagram | Orbital Elements | Physical Parameters | Discovery Circumstances | Close-Approach Data ]

Physical Parameter Table
Parameter Symbol Value Units Sigma Reference Notes
absolute magnitude H 19.336 mag .69721 77 autocmod 2.5c

152685 (1998 MZ)          Discovered 1998-Jun-18 by Spacewatch at Kitt Peak (691)
Reference: 20070402/Numbers.arcLast Updated: 2007-04-04

[ show close-approach data ]
Alternate Designations
 1998 MZ = 2003 QZ89 
Ephemeris | Orbit Diagram | Orbital Elements | Physical Parameters | Discovery Circumstances | Close-Approach Data ]
ABOUT SSD CREDITS/AWARDS PRIVACY/COPYRIGHT GLOSSARY LINKS
FirstGov 2013-Jun-20 09:03 UT
(server date/time)  
NASA Home Page
Site Manager:   Donald K. Yeomans
Webmaster  Alan B. Chamberlin